GALAXY 16 (G-16)

Last updated on Tue Sep 22 2026 00:03:11 GMT+0000 (Coordinated Universal Time)

1 29236U 06023A 26264.51095455 -.00000131 00000+0 00000+0 0 9991 2 29236 0.0172 200.7170 0002778 345.8194 258.8062 1.00271480 73935
UTC large
Height (km)
Speed (km/s)
/
Latitude / Longitude
Inclination (degrees)
Orbital Period (minutes)
Azimuth
Elevation
Range (km)
Doppler Factor

Next 0 passes for location: London (51.5072 / 0.1276)

No passes found over London.
GALAXY 16 (G-16)